TIANMU-1 21 (58662 NORAD) Tracking and Keplerian Element Data

This shows tracking and keplerian element data for the satellite.

Feedback or suggestion? Click here.




ElementValue
Catalog58662
NameTIANMU-1 21
Epoch Orbit256
Epoch Day13.18119922
Epoch Year2024
RAAN129.8584
Inclination97.3978
Eccentricity0.0009835
Argument of Perigee195.2371
Mean Anonmoly164.8567
Mean Motion15.14173527
Decay Rate8.61E-05
L11 58662U 23208C 24013.18119922 .00008610 00000+0 47479-3 0 9993
L22 58662 97.3978 129.8584 0009835 195.2371 164.8567 15.14173527 2568



Live tracking and technical data element details for TIANMU-1 21 (NORAD 58662). TIANMU-1 21 can be tracked NOW for your location showing map with azimuth and elevation plus other details from your city location.







IsCatalogInMostPopularTable: catalog: 58662, numindb: 22
Update: records affected: 1



GetName: 58662 TIANMU-1 21

Hit Count: updated at: Wed, 17 Apr 2024 02:20:46 GMT